Regional Weather Roundup
Issued by NWS Sioux Falls, SD

Home | Current Version | Previous Version | Graphics & Text | Print | Product List | Glossary Off
Versions: 1 2 3 4 5 6 7 8 9 10 11 12 13 14 15 16 17 18 19 20 21 22 23 24 25 26 27 28 29 30 31 32 33 34 35 36 37 38 39 40 41 42 43 44 45 46 47 48 49 50

000
ASUS43 KFSD 041402
RWRFSD

WEATHER ROUNDUP FOR SE SOUTH DAKOTA/SW MINNESOTA/NW IOWA
NATIONAL WEATHER SERVICE SIOUX FALLS SD
800 AM CST SUN DEC 04 2016

NOTE: "FAIR" INDICATES FEW OR NO CLOUDS BELOW 12,000 FEET WITH NO
SIGNIFICANT WEATHER AND OR OBSTRUCTIONS TO VISIBILITY.


SDZ038>040-050-052>070-041500-
SOUTHEAST SOUTH DAKOTA

CITY           SKY/WX    TMP DP  RH WIND       PRES   REMARKS
CHAMBERLAIN    CLEAR     29  26  86 W8        29.89S WCI  21
HURON          CLEAR     27  24  89 SW9       29.86R WCI  18
MADISON        FAIR      28  28 100 W12       29.84S WCI  18
MITCHELL       PTCLDY    32  26  78 SW9       29.89S WCI  24
SIOUX FALLS    CLOUDY    31  31 100 SW5       29.88R FOG     WCI  26
WINNER         FAIR      32  24  72 W10       29.90R WCI  24
YANKTON        CLEAR     28  25  86 W5        29.91R WCI  23
$$

MNZ071-072-080-081-089-090-097-098-041500-
SOUTHWEST MINNESOTA

CITY           SKY/WX    TMP DP  RH WIND       PRES   REMARKS
FAIRMONT       CLOUDY    33  32  96 SW9       29.91S WCI  25
JACKSON        MOCLDY    32  32 100 SW9       29.88S FOG     WCI  24
LUVERNE        CLOUDY    32  30  93 SW10      29.89R FOG     WCI  24
MARSHALL       MOCLDY    33  29  85 SW14      29.84F WCI  23
MONTEVIDEO     CLOUDY    34  34 100 S5        29.85F WCI  30
PIPESTONE      CLOUDY    32  30  93 SW12      29.84S FOG     WCI  23
REDWOOD FALLS  MOCLDY    34  31  88 S9        29.86S WCI  27
TRACY          CLOUDY    34  32  90 SW15      29.85F WCI  25
WINDOM         PTCLDY    34  32  93 CALM      29.87S
WORTHINGTON    CLOUDY    32  31  96 SW12      29.87S WCI  23
$$

IAZ001>003-012>014-020>022-031-032-NEZ013-014-SDZ071-041500-
NORTHWEST IOWA

CITY           SKY/WX    TMP DP  RH WIND       PRES   REMARKS
CHEROKEE       CLOUDY    33  33 100 SW7       29.93R FOG     WCI  26
DENISON        CLOUDY    32  32 100 SW9       29.93F WCI  24
ESTHERVILLE    CLOUDY    33  33 100 SW12      29.89S WCI  24
LE MARS        CLEAR     32  30  93 S8        29.93S WCI  25
ORANGE CITY    MOCLDY    32  32 100 CALM      29.91R FOG
SHELDON        CLOUDY    34  34 100 SW9       29.89S WCI  26
SIOUX CITY     CLEAR     32  30  92 S5        29.94S WCI  27
SPENCER        PTCLDY    32  31  96 S15       29.91S FOG     WCI  22
STORM LAKE     CLOUDY    32  32 100 SW9       29.93S FOG     WCI  24
$$

ABBREVIATIONS USED IN REMARKS
   TC - TEMPERATURE IN CELSIUS
  WCI - WIND CHILL INDEX
   HX - HEAT INDEX
  VSB - VISIBILITY





USA.gov is the U.S. government's official web portal to all federal, state and local government web resources and services.